{"data":{"norad_id":68977,"epoch":"2026-05-25T04:00:03.998880Z","epoch_age_seconds":50708,"freshness":"FRESH","line1":"1 68977U 26099AC  26145.16671295 -.01912971  00000+0 -16899-1 0  9993","line2":"2 68977  53.1599 269.7945 0001002  58.4160   8.8996 15.70944036  4968","mean_motion":15.70944036,"eccentricity":0.0001002,"inclination_deg":53.1599,"raan_deg":269.7945,"arg_perigee_deg":58.416,"mean_anomaly_deg":8.8996,"bstar":-0.016899,"rev_number":496,"period_min":91.664627574295,"perigee_km":355.52294328099,"apogee_km":356.8725039596,"semimajor_km":6734.3347236203,"source":"CELESTRAK","updated_at":"2026-05-25T13:38:22.078077Z"}}